Location: Brunnen
(48.6541°N, 10.9920°E)
Time: 07:50:52
(UTC+00:00)

Okean 3 - Pass Details

Date: 01 June 2020
Orbit: 575 x 602 km, 82.5° (Epoch: 07 July)

Event Time Altitude Azimuth Distance (km) Brightness Sun altitude
Rises 20:03:27 0° 197° (SSW) 2,841 6.7 -7.4°
Reaches altitude 10° 20:05:41 10° 201° (SSW) 1,943 5.9 -7.6°
Maximum altitude 20:09:56 61° 282° (WNW) 686 4.1 -8.1°
Drops below altitude 10° 20:14:14 10° 3° (N) 1,957 6.8 -8.6°
Sets 20:16:29 0° 7° (N) 2,862 7.6 -8.8°
